Weather History for KFVX - October, 2012

Change the Weather History Date:

Monday, October 29, 2012

  Actual Average Record
Temperature  
Mean Temperature 48 °F -  
Max Temperature 53 °F 68 °F 84 °F (1984)
Min Temperature 44 °F 40 °F 23 °F (1976)
Degree Days  
Heating Degree Days 16    
Moisture  
Dew Point 46 °F    
Average Humidity 90    
Maximum Humidity 94    
Minimum Humidity 81    
Precipitation  
Precipitation 0.78 in - - ()
Sea Level Pressure  
Sea Level Pressure 29.38 in    
Wind  
Wind Speed 6 mph (WNW)    
Max Wind Speed 13 mph    
Max Gust Speed 23 mph    
Visibility 9 miles    
Events Rain    
Averages and records for this station are not official NWS values.
T = Trace of Precipitation, MM = Missing Value Source: NWS Daily Summary

Daily Weather History Graph

Daily Weather History Graph

Search for Another Location

Airport or City:

Trip Planner

Search our weather history database for the weather conditions in past years. The results will help you decide how hot, cold, wet, or windy it might be!

Date:

Astronomy

Oct. 29, 2012 Rise Set
Actual Time 7:35 AM EDT 6:18 PM EDT
Civil Twilight 7:08 AM EDT 6:45 PM EDT
Nautical Twilight 6:38 AM EDT 7:16 PM EDT
Astronomical Twilight 6:07 AM EDT 7:46 PM EDT
Moon 6:10 PM EDT (10/29) 7:23 AM EDT (10/29)
Length of Visible Light 11h 36m
Length of Day
10h 42m
Full, 100% of the Moon is Illuminated
Oct 29
Full
Oct 29
Full
Nov 6
Last Quarter
Nov 13
New
Nov 20
First Quarter

Hourly Weather History & Observations

Time (EDT) Temp. Windchill Dew Point Humidity Pressure Visibility Wind Dir Wind Speed Gust Speed Precip Events Conditions
12:15 AM 53.6 °F - 51.8 °F 94% 29.57 in 4.0 mi NNW 4.6 mph - 0.03 in   Heavy Drizzle
12:35 AM 53.6 °F - 51.8 °F 94% 29.56 in 4.0 mi NW 5.8 mph - 0.04 in Rain Rain
12:55 AM 53.6 °F - 51.8 °F 94% 29.56 in 4.0 mi NW 6.9 mph - 0.01 in   Drizzle
1:15 AM 53.6 °F - 51.8 °F 94% 29.55 in 5.0 mi NW 5.8 mph - 0.03 in Rain Rain
1:35 AM 53.6 °F - 51.8 °F 94% 29.55 in 7.0 mi NNW 9.2 mph - 0.05 in Rain Light Rain
1:55 AM 53.6 °F - 51.8 °F 94% 29.54 in 10.0 mi NW 5.8 mph - 0.01 in Rain Light Rain
2:15 AM 53.6 °F - 51.8 °F 94% 29.55 in 10.0 mi NNW 8.1 mph - 0.04 in Rain Light Rain
2:35 AM 51.8 °F - 50.0 °F 94% 29.54 in 10.0 mi NW 4.6 mph - 0.05 in Rain Light Rain
2:55 AM 51.8 °F - 50.0 °F 94% 29.53 in 7.0 mi NNW 6.9 mph - 0.01 in Rain Light Rain
3:15 AM 51.8 °F - 50.0 °F 94% 29.52 in 5.0 mi NW 6.9 mph - 0.01 in   Drizzle
3:35 AM 51.8 °F - 50.0 °F 94% 29.52 in 5.0 mi NW 5.8 mph - 0.02 in   Drizzle
3:55 AM 51.8 °F - 48.2 °F 88% 29.51 in 7.0 mi NW 6.9 mph - N/A   Drizzle
4:15 AM 51.8 °F - 48.2 °F 88% 29.52 in 10.0 mi NNW 4.6 mph - N/A Rain Light Rain
4:35 AM 51.8 °F - 48.2 °F 88% 29.51 in 10.0 mi NNW 4.6 mph - N/A   Light Drizzle
4:55 AM 51.8 °F - 48.2 °F 88% 29.51 in 7.0 mi NW 6.9 mph - 0.01 in   Drizzle
5:15 AM 51.8 °F - 48.2 °F 88% 29.50 in 7.0 mi NW 8.1 mph - 0.02 in Rain Light Rain
5:55 AM 50.0 °F - 46.4 °F 87% 29.50 in 10.0 mi NW 5.8 mph - 0.01 in   Drizzle
6:55 AM 50.0 °F - 46.4 °F 87% 29.48 in 10.0 mi NW 6.9 mph 18.4 mph N/A Rain Rain
7:15 AM 50.0 °F - 46.4 °F 87% 29.48 in 10.0 mi WNW 4.6 mph 16.1 mph 0.01 in Rain Light Rain
7:35 AM 50.0 °F - 46.4 °F 87% 29.48 in 10.0 mi NW 4.6 mph - 0.02 in Rain Light Rain
7:55 AM 50.0 °F - 46.4 °F 87% 29.48 in 10.0 mi NW 4.6 mph - N/A   Light Drizzle
8:15 AM 50.0 °F - 46.4 °F 87% 29.48 in 10.0 mi NW 3.5 mph - N/A Rain Rain
8:35 AM 50.0 °F - 46.4 °F 87% 29.48 in 10.0 mi NW 5.8 mph - 0.01 in Rain Light Rain
8:55 AM 48.2 °F - 46.4 °F 93% 29.47 in 10.0 mi NW 4.6 mph - 0.01 in Rain Rain
9:15 AM 48.2 °F - 46.4 °F 93% 29.46 in 10.0 mi WNW 5.8 mph - 0.03 in Rain Light Rain
9:35 AM 48.2 °F - 46.4 °F 93% 29.45 in 10.0 mi NW 6.9 mph - 0.06 in Rain Light Rain
9:55 AM 48.2 °F - 46.4 °F 93% 29.45 in 10.0 mi NNW 3.5 mph - N/A Rain Light Rain
10:15 AM 48.2 °F - 46.4 °F 93% 29.45 in 10.0 mi WNW 4.6 mph - 0.01 in Rain Light Rain
10:35 AM 48.2 °F - 46.4 °F 93% 29.44 in 10.0 mi NW 4.6 mph - 0.02 in Rain Light Rain
10:55 AM 48.2 °F - 46.4 °F 93% 29.43 in 10.0 mi NW 6.9 mph - 0.01 in Rain Light Rain
11:15 AM 48.2 °F - 46.4 °F 93% 29.43 in 10.0 mi WNW 3.5 mph - 0.03 in Rain Rain
11:35 AM 48.2 °F - 46.4 °F 93% 29.42 in 10.0 mi WNW 3.5 mph - 0.04 in Rain Light Rain
11:55 AM 48.2 °F - 46.4 °F 93% 29.41 in 10.0 mi West 3.5 mph - 0.01 in Rain Light Rain
12:15 PM 48.2 °F - 46.4 °F 93% 29.40 in 10.0 mi West 3.5 mph - 0.01 in Rain Light Rain
12:35 PM 48.2 °F - 44.6 °F 87% 29.39 in 10.0 mi West 3.5 mph - 0.03 in Rain Light Rain
12:55 PM 48.2 °F - 44.6 °F 87% 29.38 in 10.0 mi West 5.8 mph - N/A Rain Rain
1:35 PM 48.2 °F - 44.6 °F 87% 29.34 in 10.0 mi WSW 5.8 mph - 0.03 in Rain Light Rain
1:55 PM 48.2 °F - 44.6 °F 87% 29.33 in 10.0 mi WSW 5.8 mph - N/A Rain Light Rain
2:15 PM 46.4 °F 42.9 °F 44.6 °F 93% 29.32 in 10.0 mi West 6.9 mph - 0.02 in Rain Light Rain
2:35 PM 46.4 °F 43.5 °F 44.6 °F 93% 29.30 in 10.0 mi West 5.8 mph - 0.03 in Rain Light Rain
2:55 PM 46.4 °F 45.2 °F 42.8 °F 87% 29.28 in 10.0 mi West 3.5 mph - N/A Rain Light Rain
3:15 PM 46.4 °F 42.9 °F 42.8 °F 87% 29.27 in 10.0 mi West 6.9 mph - 0.01 in Rain Light Rain
3:35 PM 46.4 °F 43.5 °F 42.8 °F 87% 29.26 in 10.0 mi West 5.8 mph - 0.02 in Rain Light Rain
4:35 PM 44.6 °F 39.7 °F 42.8 °F 93% 29.23 in 10.0 mi WSW 9.2 mph - 0.07 in Rain Rain
4:55 PM 44.6 °F 39.7 °F 42.8 °F 93% 29.22 in 10.0 mi WSW 9.2 mph 16.1 mph 0.02 in Rain Rain
5:15 PM 44.6 °F 39.2 °F 42.8 °F 93% 29.21 in 10.0 mi WSW 10.4 mph 16.1 mph 0.05 in Rain Light Rain
5:35 PM 44.6 °F 40.2 °F 42.8 °F 93% 29.19 in 10.0 mi WSW 8.1 mph - 0.08 in Rain Rain
5:55 PM 44.6 °F 39.2 °F 42.8 °F 93% 29.18 in 10.0 mi WSW 10.4 mph 17.3 mph 0.01 in Rain Light Rain
6:15 PM 44.6 °F 39.7 °F 41.0 °F 87% 29.17 in 10.0 mi WSW 9.2 mph 21.9 mph 0.04 in Rain Rain
6:35 PM 44.6 °F 38.4 °F 41.0 °F 87% 29.15 in 10.0 mi WSW 12.7 mph 23.0 mph 0.09 in Rain Rain
6:55 PM 44.6 °F 39.7 °F 41.0 °F 87% 29.14 in 10.0 mi WSW 9.2 mph 20.7 mph 0.01 in Rain Light Rain
7:15 PM 44.6 °F 38.4 °F 41.0 °F 87% 29.13 in 10.0 mi WSW 12.7 mph 20.7 mph 0.03 in Rain Light Rain
7:35 PM 44.6 °F 38.4 °F 41.0 °F 87% 29.12 in 10.0 mi WSW 12.7 mph 19.6 mph 0.04 in Rain Light Rain
7:55 PM 44.6 °F 38.8 °F 41.0 °F 87% 29.11 in 10.0 mi SW 11.5 mph 23.0 mph 0.02 in Rain Light Rain
8:15 PM 44.6 °F 39.7 °F 41.0 °F 87% 29.11 in 10.0 mi WSW 9.2 mph 20.7 mph 0.04 in Rain Rain
8:35 PM 44.6 °F 39.2 °F 41.0 °F 87% 29.10 in 10.0 mi WSW 10.4 mph 20.7 mph 0.06 in Rain Light Rain
11:35 PM 44.6 °F 39.2 °F 39.2 °F 81% 29.05 in 10.0 mi WSW 10.4 mph 23.0 mph 0.02 in Rain Light Rain
11:55 PM 44.6 °F 38.8 °F 39.2 °F 81% 29.05 in 10.0 mi SW 11.5 mph 17.3 mph 0.01 in Rain Light Rain